Agen Poker | Poker Online | Poker Uang Asli | Dewa Poker

togel online

Jackpot

Texas Poker Multi Jackpot System

Kini Telah hadir Jackpot SUPER ROYAL FLUSH

Kini Telah hadir Jackpot 2000 (khusus table VIP keatas).

Ikutilah global jackpot yang tersedia di system kami, dengan system jackpot terbaru dan pertama di indonesia, anda dapat membeli jackpot dengan harga 100 rupiah saja dan menangkan hadiahnya hingga puluhan juta rupiah.

Jackpot bukanlah suatu keharusan untuk dibeli, namun kami memberikan suatu fitur tambahan untuk member tercinta dari www.kudapoker.com.

Terdapat tiga pilihan harga jackpot yang bisa anda beli yaitu :100,500,1000 dan 2000(khusus table VIP Keatas) rupiah.

Hadiah dari Multi jackpot system www.kudapoker.com

  1. full house x 10 harga jackpot yang anda beli.
      (contoh:anda membeli 1000 maka:1000 X10 = 10.000)
  2. four of kind x 250 harga jackpot yang anda beli
      (contoh:anda membeli 1000 maka:1000 X250 = 250.000)
  3. Straight flush x 1200
      (contoh:anda membeli 1000 maka:1000 X1200 = 1.200.000)
  4. Royal flush x 10000 harga jackpot yang anda beli
      (contoh:anda membeli 1000 maka:1000 X10000 = 10.000.000)
  5. SUPER ROYAL FLUSH x 30000 harga jackpot yang anda beli
      (contoh:anda membeli 1000 maka:1000 X30000 = 30.000.000)

Kondisi kartu

  1. full house adalah kondisi kartu dimana kartu anda dan kartu tengah dengan total 7 kartu bisa mendapatkan nilai 5 kartu dengan kombinasi 1 tris(three of kind) dan 1 pair, contoh 3 kartu 10 dan 2 kartu 5
  2. Four of kind adalah kondisi kartu dimana kartu anda dan kartu tengah dengan total 7 kartu bisa mendapatkan nilai 5 kartu dengan kombinasi 4 kartu yang sama jumlah dan 1 kartu apapun juga contoh anda mendapatkan 4 buah kartu angka 3 dan 1 kartu apapun.
  3. Staright flush adalah kondisi kartu dimana kartu anda dan kartu tengah dengan total 7 kartu bisa mendapatkan nilai 5 kartu dengan kombinasi seri / staright dengan kembang yang sama contoh : urutan kartu dari angka 5, 6, 7, 8 , 9 10 dengan kembang yg sama misalnya as hati
  4. Royal flush adalah kondisi kartu dimana kartu anda dan kartu tengah dengan total 7 kartu bisa mendapatkan nilai 5 kartu dengan kombinasi seri / staright dengan kembang yang sama tetapi kartu tersebut haruslah dimulai dari 10. contoh 10, Queen, Jack, King dan aces dengan kembang yang sama
  5. Super Royal flush adalah kondisi kartu dimana Kedua kartu anda digabung dengan 3 kartu pertama meja haruslah royal flush. contoh kartu anda 10,Queen kembang sama dan 3 kartu pertama meja adalah Jack, King dan aces dengan kembang yang sama

Demikian adalah penjelasan dari Multi Jackpot www.kudapoker.com terima kasih dan selamat bermain salam hoki dari kami

Texas Poker Jackpot Winner

TOP SUPER ROYAL FLUSH
No.TanggalNamaPriceWin
119/01 00:10BD_05Super Royal flush6,000,000
218/01 20:33MCAKBLAKSuper Royal flush1,500,000
318/01 18:17MARURSuper Royal flush6,000,000
418/01 14:31BOZLINDA2Super Royal flush3,000,000
518/01 13:23FEFFSuper Royal flush15,000,000
TOP ROYAL FLUSH
No.TanggalNamaPriceWin
119/01 02:08SONGOO_9Royal flush1,000,000
219/01 02:06S3BOCHG4VHRoyal flush1,000,000
319/01 01:58NOTOIIRoyal flush2,000,000
419/01 01:41SAORYSANDYRoyal flush10,000,000
519/01 01:33MALACI22Royal flush5,000,000
TOP STRAIGHT FLUSH
No.TanggalNamaPriceWin
119/01 02:13SY78890Straight Flush2,400,000
219/01 02:12XXX3788Straight Flush240,000
319/01 02:12C03D5893Straight Flush1,200,000
419/01 02:12OSAKA702Straight Flush1,200,000
519/01 02:10SPY8899Straight Flush600,000
LATEST JACKPOT
No.TanggalNamaPriceWin
119/01 02:13DJAHATFull House20,000
219/01 02:13ANDY55555Full House2,000
319/01 02:13XXXNFull House20,000
419/01 02:13HKY368Full House20,000
519/01 02:13BAUHARUKFull House1,000
619/01 02:13FOLDTERUS_Full House2,000
719/01 02:13ENDI29Full House5,000
819/01 02:13DWANE25Full House10,000
919/01 02:13DAB0BFull House10,000
1019/01 02:13BATOO007Four Of A Kind500,000
1119/01 02:13ALIENDFull House2,000
1219/01 02:13AJENK2Full House2,000
1319/01 02:13STARSYNDRMFull House5,000
1419/01 02:13SY78890Straight Flush2,400,000
1519/01 02:13HERO30Full House2,000
1619/01 02:13POZOKI88Full House10,000
1719/01 02:13LANGER_LAFull House2,000
1819/01 02:13KARMAN2727Full House10,000
1919/01 02:13KEYSA_86Full House5,000
2019/01 02:13ELEG121Full House2,000
2119/01 02:13CHIE168Full House5,000
2219/01 02:13DAMS22Full House5,000
2319/01 02:13R0ROMB3H3NFull House10,000
2419/01 02:13FD523429Four Of A Kind250,000
2519/01 02:13GARDA99Full House2,000
2619/01 02:13RM555666Full House2,000
2719/01 02:13GALAXY69Full House5,000
2819/01 02:13C2AF8119Full House5,000
2919/01 02:13FARID45Full House2,000
3019/01 02:13PARLAY002Full House5,000
3119/01 02:13SONYZ5Four Of A Kind25,000
3219/01 02:13K36RA79C9LFull House10,000
3319/01 02:13NGUR4KASFull House10,000
3419/01 02:13CIU233Full House20,000
3519/01 02:13WAHIER16Full House2,000
3619/01 02:13JAGUARZZFull House2,000
3719/01 02:13TEK_DUNKK2Full House5,000
3819/01 02:13LIINTAH05Full House5,000
3919/01 02:13BH312N4DFull House5,000
4019/01 02:13SU_DASRUNFull House10,000
4119/01 02:13AARUS99Full House10,000
4219/01 02:13NY3KRQ16PVFull House5,000
4319/01 02:13SUPPZFull House10,000
4419/01 02:134KU4Full House2,000
4519/01 02:13HXKOJOBIVGFour Of A Kind50,000
4619/01 02:13OLAF13Full House5,000
4719/01 02:13PARSABUNGAFull House5,000
4819/01 02:13F1B1C379Full House1,000
4919/01 02:13WIJAYASHINFour Of A Kind50,000
5019/01 02:13QIRBY99Full House500

Domino Multi Jackpot System

Ikutilah global jackpot yang tersedia di system kami, dengan system jackpot terbaru dan pertama di indonesia, anda dapat membeli jackpot dengan harga 100 rupiah saja dan menangkan hadiahnya hingga puluhan juta rupiah.

Jackpot bukanlah suatu keharusan untuk dibeli, namun kami memberikan suatu fitur tambahan untuk member tercinta dari www.kudapoker.com.

Terdapat tiga pilihan harga jackpot yang bisa anda beli yaitu :100,500 dan 1000 rupiah.

Hadiah dari Multi jackpot system www.kudapoker.com

  1. Murni Kecil x 50 harga jackpot yang anda beli.
      (contoh:anda membeli 1000 maka:1000 X 50 = 50.000)
  2. Murni Besar x 50 harga jackpot yang anda beli
      (contoh:anda membeli 1000 maka:1000 X 50 = 50.000)
  3. BALAK x 100 harga jackpot yang anda beli
      (contoh:anda membeli 1000 maka:1000 X 100 = 100.000)
  4. ENAM DEWA x 6666 harga jackpot yang anda beli
      (contoh:anda membeli 1000 maka:1000 X 6666 = 6.666.000)

Demikian adalah penjelasan dari Multi Jackpot www.kudapoker.com terima kasih dan selamat bermain salam hoki dari kami

Domino Jackpot Winner

TOP ENAM DEWA
No.TanggalNamaPriceWin
119/01 00:45BUFON6666murni enam6,666,000
219/01 00:33ALIE80murni enam6,666,000
318/01 23:34F3L3K3R689murni enam6,666,000
418/01 22:46Q02RXXIINTmurni enam666,600
518/01 21:58LADHANKA08murni enam3,333,000
TOP BALAK
No.TanggalNamaPriceWin
119/01 02:13DWBTO3665balak10,000
219/01 02:12ADOET123balak50,000
319/01 02:08DADAV202balak100,000
419/01 02:06B74Rbalak10,000
519/01 02:06YU21Nbalak100,000
LATEST JACKPOT
No.TanggalNamaPriceWin
119/01 02:13KWN1990murni kecil25,000
219/01 02:13DWBTO3665balak10,000
319/01 02:13LIPAN98murni kecil5,000
419/01 02:12LEMPAYmurni besar50,000
519/01 02:12ADOET123balak50,000
619/01 02:10SIJONN99murni besar50,000
719/01 02:09AADRAX1250murni kecil5,000
819/01 02:09BOAA0078lucky9910,000
919/01 02:09ADOET123murni besar25,000
1019/01 02:08DADAV202balak100,000
1119/01 02:08DBJS7HDWU9murni kecil25,000
1219/01 02:08PELITTmurni kecil25,000
1319/01 02:07E3DDAEEBmurni kecil5,000
1419/01 02:07ELANG1122lucky9925,000
1519/01 02:06B74Rbalak10,000
1619/01 02:06YU21Nbalak100,000
1719/01 02:06BREMPRITmurni besar5,000
1819/01 02:05BREMPRITmurni kecil5,000
1919/01 02:05IW4N98murni besar5,000
2019/01 02:04PUKYAYAM12murni besar5,000
2119/01 02:04TEMPEKTUO1balak100,000
2219/01 02:03SOUL9murni kecil50,000
2319/01 02:03A0FD789Emurni kecil5,000
2419/01 02:02ZOKER05454murni kecil50,000
2519/01 02:01TU4N__MUD0balak50,000
2619/01 02:01FORTUNA899murni kecil25,000
2719/01 02:00JOGJOG74balak10,000
2819/01 02:00DIREJAQQmurni besar50,000
2919/01 02:00C9836872murni besar25,000
3019/01 02:00UTUHLAKIlucky99200,000
3119/01 01:59BHANI888balak50,000
3219/01 01:59SIBOLANGXMmurni besar50,000
3319/01 01:59MURA01murni besar25,000
3419/01 01:59C251BA7Cmurni kecil25,000
3519/01 01:58PEEWEEQmurni kecil50,000
3619/01 01:58TANGGALAMmurni kecil25,000
3719/01 01:58PILATUS22murni kecil50,000
3819/01 01:58CINOSASElucky99700,000
3919/01 01:58DBJS7HDWU9balak50,000
4019/01 01:57JHONONAR99murni kecil50,000
4119/01 01:57AB435CD5balak50,000
4219/01 01:57RANDY889murni besar50,000
4319/01 01:56DD0N19murni kecil5,000
4419/01 01:56LUGUA09balak100,000
4519/01 01:56WIDROW35murni kecil50,000
4619/01 01:56AIDIL018murni besar5,000
4719/01 01:55ANDIYULImurni besar50,000
4819/01 01:55SU2UKImurni kecil5,000
4919/01 01:55PUKYAYAM12balak10,000
5019/01 01:54SLASHPOKERmurni kecil5,000

Ceme Multi Jackpot System

Jackpot dilihat dari gabungan kartu pemain dengan kartu bandar. Bandar harus membeli jackpot sebanyak jumlah player yang sedang duduk. Sebagai contoh bila terdapat 3 pemain duduk bermain, dan bandar memutuskan untuk membeli jackpot Rp 1.000, maka pada periode tersebut bandar akan membeli jackpot sebanyak 3xRp1.000 = Rp3.000.

Jackpot bukanlah suatu keharusan untuk dibeli, namun kami memberikan suatu fitur tambahan untuk member tercinta dari www.kudapoker.com.

Terdapat tiga pilihan harga jackpot yang bisa anda beli yaitu :100,500 dan 1000 rupiah.

Hadiah dari Multi jackpot system www.kudapoker.com

  1. Murni Kecil x 50 harga jackpot yang anda beli.
      (contoh:anda membeli 1000 maka:1000 X 50 = 50.000)
  2. Murni Besar x 50 harga jackpot yang anda beli
      (contoh:anda membeli 1000 maka:1000 X 50 = 50.000)
  3. BALAK x 200 harga jackpot yang anda beli
      (contoh:anda membeli 1000 maka:1000 X 200 = 200.000)
  4. ENAM DEWA x 6666 harga jackpot yang anda beli
      (contoh:anda membeli 1000 maka:1000 X 6666 = 6.666.000)

Demikian adalah penjelasan dari Multi Jackpot www.kudapoker.com terima kasih dan selamat bermain salam hoki dari kami

Ceme Jackpot Winner

TOP ENAM DEWA
No.TanggalNamaPriceWin
119/01 01:51ITILSEMPITmurni enam6,666,000
219/01 01:50YULII14murni enam6,666,000
319/01 01:28TUANMUDA89murni enam666,600
419/01 01:23ROJER056murni enam666,600
519/01 01:14MUJUAH_murni enam6,666,000
TOP BALAK
No.TanggalNamaPriceWin
119/01 02:13DR987balak200,000
219/01 02:12ARIETOWELbalak200,000
319/01 02:12DANILDEFINbalak200,000
419/01 02:12TORI882balak200,000
519/01 02:11UGIX1988balak100,000
LATEST JACKPOT
No.TanggalNamaPriceWin
119/01 02:13DR987balak200,000
219/01 02:13ES113murni besar25,000
319/01 02:13POKEH666murni kecil50,000
419/01 02:12JAK1988murni besar50,000
519/01 02:12ELLIA99murni besar50,000
619/01 02:12JAYENG99murni kecil50,000
719/01 02:12TENGTLEmurni kecil50,000
819/01 02:12CKILDKILmurni kecil5,000
919/01 02:12LAW1981murni kecil50,000
1019/01 02:12ARIETOWELbalak200,000
1119/01 02:12DANILDEFINbalak200,000
1219/01 02:12GABUTTTmurni kecil50,000
1319/01 02:12TARKEM13murni besar50,000
1419/01 02:12YUHUI01murni kecil50,000
1519/01 02:12TIDID08murni kecil25,000
1619/01 02:12YUHUI01murni kecil50,000
1719/01 02:12DHARA22murni kecil50,000
1819/01 02:12TORI882balak200,000
1919/01 02:11NAYA555murni kecil50,000
2019/01 02:11BOY1705murni besar50,000
2119/01 02:11COOLLINmurni besar5,000
2219/01 02:11FERAVIPNmurni kecil50,000
2319/01 02:11BABAHBALABmurni kecil50,000
2419/01 02:11UGIX1988balak100,000
2519/01 02:11BALUAP28balak100,000
2619/01 02:10DEXPRObalak200,000
2719/01 02:10AZKA0811murni kecil5,000
2819/01 02:10FORTUNE60murni kecil25,000
2919/01 02:10CHIEKAL90murni kecil50,000
3019/01 02:10MUNCIKARImurni besar25,000
3119/01 02:10NUGRAHA008balak100,000
3219/01 02:09ARIETOWELbalak200,000
3319/01 02:09HOKI551balak200,000
3419/01 02:09MERANG772murni kecil50,000
3519/01 02:09ERZA13balak100,000
3619/01 02:09DOLAR122balak20,000
3719/01 02:09ARNOUZmurni kecil5,000
3819/01 02:09TARKEM13murni kecil5,000
3919/01 02:09CODOT66666balak200,000
4019/01 02:09OMTATTO12balak100,000
4119/01 02:09SEPI92murni kecil25,000
4219/01 02:09COCUmurni kecil5,000
4319/01 02:08WINA43murni besar25,000
4419/01 02:08AIRA2014murni besar50,000
4519/01 02:08OMENTOKOMmurni kecil25,000
4619/01 02:08MAYBOY99balak200,000
4719/01 02:08KODIR63murni kecil25,000
4819/01 02:08DUREN021murni kecil5,000
4919/01 02:08SIWEN78balak200,000
5019/01 02:07IGACIZZ88murni kecil50,000